FLOCK 3P-70

Last updated on Wed Feb 14 2018 16:20:24 GMT+0000 (Coordinated Universal Time)

1 41980U 17008AJ 18044.84472225 .00001270 00000-0 55500-4 0 9998 2 41980 97.4683 110.4971 0009830 73.2645 286.9670 15.23916185 55156
UTC large
Height (km)
Speed (km/s)
/
Latitude / Longitude
Inclination (degrees)
Orbital Period (minutes)
Azimuth
Elevation
Range (km)
Doppler Factor

Next 0 passes for location: London (51.5072 / 0.1276)

Sorry there are no passes over London.